Overview Statistics Trail Chart Weather Telemetry Raw packets
 

This is the latest recevied weather packets stored in our database for station/object KW4UJ. If no packets are shown the sender has not sent any weather packets the latest 10 day(s).

<< 13 14 15 16 17 18 19 >>
Time Temp. Humidity Pressure Rain* Wind** Luminosity Snow
1788545343 31.67° C 61% 1013.6 hPa 0 mm - 530 W/m² -
1788545039 31.11° C 61% 1013.7 hPa 0 mm - 557 W/m² -
1788544738 31.11° C 60% 1013.6 hPa 0 mm - 479 W/m² -
1788544437 31.11° C 60% 1013.7 hPa 0 mm - 479 W/m² -
1788544136 31.67° C 60% 1013.7 hPa 0 mm - 541 W/m² -
1788543832 31.11° C 59% 1013.7 hPa 0 mm - 526 W/m² -
1788543528 31.11° C 59% 1013.8 hPa 0 mm - 566 W/m² -
1788543223 31.11° C 59% 1013.8 hPa 0 mm - 612 W/m² -
1788542941 30.56° C 60% 1013.9 hPa 0 mm - 589 W/m² -
1788542618 31.11° C 59% 1013.9 hPa 0 mm - 599 W/m² -
1788542313 30.56° C 61% 1014 hPa 0 mm - 546 W/m² -
1788542009 30.56° C 61% 1014 hPa 0 mm - 521 W/m² -
1788541705 30.56° C 61% 1014 hPa 0 mm - 615 W/m² -
1788541400 30° C 61% 1014.1 hPa 0 mm - 604 W/m² -
1788541101 30.56° C 62% 1013.9 hPa 0 mm - 591 W/m² -
1788540800 30.56° C 61% 1014.1 hPa 0 mm - 577 W/m² -
1788540495 30° C 64% 1014.2 hPa 0 mm - 587 W/m² -
1788540189 30° C 62% 1014.4 hPa 0 mm - 561 W/m² -
1788539886 30° C 65% 1014.3 hPa 0 mm - 259 W/m² -
1788539586 30.56° C 65% 1014.5 hPa 0 mm - 512 W/m² -
1788539285 30° C 65% 1014.5 hPa 0 mm - 225 W/m² -
1788538981 29.44° C 66% 1014.4 hPa 0 mm - 206 W/m² -
1788538675 29.44° C 68% 1014.6 hPa 0 mm - 99 W/m² -
1788538370 29.44° C 67% 1014.5 hPa 0 mm - 72 W/m² -
1788538066 29.44° C 68% 1014.6 hPa 0 mm - 76 W/m² -

* Rain latest hour (hover to see other rain measurements)
** Current wind speed in m/s (hover to see current wind gust speed)